Weather History for Indianapolis, IN

Change the Weather History Date:

Tuesday, November 27, 2012

  Actual Average (KEYE) Record (KEYE)
Temperature  
Mean Temperature 30 °F 39 °F  
Max Temperature 37 °F 46 °F 63 °F (1998)
Min Temperature 23 °F 32 °F 17 °F (1996)
Degree Days  
Heating Degree Days 35 26  
Month to date heating degree days 550  
Since 1 July heating degree days 942  
Cooling Degree Days 0 0  
Month to date cooling degree days 0  
Year to date cooling degree days 1058  
Moisture  
Dew Point 23 °F    
Average Humidity 76    
Maximum Humidity 89    
Minimum Humidity 49    
Precipitation  
Precipitation 0.00 in 0.12 in 0.69 in (2004)
Month to date precipitation 3.34  
Year to date precipitation 37.35  
Sea Level Pressure  
Sea Level Pressure 30.32 in    
Wind  
Wind Speed 4 mph (NNW)    
Max Wind Speed 8 mph    
Max Gust Speed -    
Visibility 8 miles    
Events Snow    
T = Trace of Precipitation, MM = Missing Value Source: NWS Daily Summary

Daily Weather History Graph

Daily Weather History Graph

Search for Another Location

Airport:

Trip Planner

Search our weather history database for the weather conditions in past years. The results will help you decide how hot, cold, wet, or windy it might be!

Date:

Astronomy

Nov. 27, 2012 Rise Set
Actual Time 7:44 AM EST 5:21 PM EST
Civil Twilight 7:14 AM EST 5:51 PM EST
Nautical Twilight 6:40 AM EST 6:24 PM EST
Astronomical Twilight 6:08 AM EST 6:57 PM EST
Moon 4:52 PM EST (11/27) 6:48 AM EST (11/27)
Length of Visible Light 10h 36m
Length of Day
9h 37m
Waxing Gibbous, 99% of the Moon is Illuminated
Nov 27
Waxing Gibbous
Nov 28
Full
Dec 6
Last Quarter
Dec 13
New
Dec 20
First Quarter

Hourly Weather History & Observations

Time (EST) Temp. Windchill Dew Point Humidity Pressure Visibility Wind Dir Wind Speed Gust Speed Precip Events Conditions
12:15 AM 31.1 °F 26.4 °F 27.9 °F 88% 30.29 in 5.0 mi North 4.6 mph - N/A Snow Light Snow
12:35 AM 30.9 °F 26.2 °F 27.5 °F 87% 30.30 in 7.0 mi North 4.6 mph - N/A Snow Light Snow
12:55 AM 31.1 °F 23.7 °F 27.5 °F 87% 30.30 in 10.0 mi North 8.1 mph - N/A   Overcast
1:15 AM 31.1 °F 23.7 °F 27.3 °F 86% 30.29 in 10.0 mi North 8.1 mph - N/A   Overcast
1:35 AM 31.1 °F 24.5 °F 27.1 °F 85% 30.29 in 10.0 mi North 6.9 mph - N/A   Overcast
1:55 AM 30.9 °F 23.5 °F 27.0 °F 85% 30.28 in 7.0 mi NNE 8.1 mph - N/A   Overcast
2:15 AM 30.9 °F 23.5 °F 26.6 °F 84% 30.28 in 7.0 mi NNE 8.1 mph - N/A   Overcast
2:55 AM 30.9 °F 25.2 °F 27.0 °F 85% 30.29 in 7.0 mi North 5.8 mph - N/A   Overcast
3:15 AM 30.9 °F 26.2 °F 27.0 °F 85% 30.30 in 7.0 mi North 4.6 mph - N/A   Overcast
3:35 AM 30.7 °F 26.0 °F 26.6 °F 85% 30.30 in 7.0 mi North 4.6 mph - N/A   Overcast
3:55 AM 30.2 °F - 26.2 °F 85% 30.30 in 7.0 mi Calm Calm - N/A   Mostly Cloudy
4:15 AM 29.3 °F 25.6 °F 25.5 °F 86% 30.30 in 7.0 mi NNW 3.5 mph - N/A   Scattered Clouds
4:35 AM 28.2 °F - 24.6 °F 86% 30.30 in 5.0 mi Calm Calm - N/A   Scattered Clouds
4:55 AM 27.1 °F 23.2 °F 23.9 °F 88% 30.29 in 4.0 mi NW 3.5 mph - N/A   Clear
5:15 AM 27.0 °F 23.0 °F 23.9 °F 88% 30.30 in 4.0 mi NW 3.5 mph - N/A   Clear
5:35 AM 27.1 °F 23.2 °F 24.3 °F 89% 30.30 in 4.0 mi NW 3.5 mph - N/A   Clear
5:55 AM 26.4 °F 20.9 °F 23.5 °F 89% 30.30 in 4.0 mi NW 4.6 mph - N/A   Clear
6:15 AM 25.7 °F 19.0 °F 22.8 °F 89% 30.31 in 5.0 mi NNW 5.8 mph - N/A   Clear
6:35 AM 25.3 °F 21.1 °F 22.1 °F 87% 30.31 in 5.0 mi NNW 3.5 mph - N/A   Clear
6:55 AM 24.8 °F 19.1 °F 21.7 °F 88% 30.31 in 5.0 mi North 4.6 mph - N/A   Clear
7:15 AM 23.9 °F - 21.0 °F 89% 30.31 in 5.0 mi Calm Calm - N/A   Clear
7:35 AM 24.3 °F - 21.2 °F 88% 30.32 in 5.0 mi Calm Calm - N/A   Scattered Clouds
7:55 AM 23.0 °F 18.4 °F 20.1 °F 89% 30.32 in 3.0 mi NNW 3.5 mph - N/A   Scattered Clouds
8:15 AM 23.2 °F - 20.3 °F 89% 30.35 in 3.0 mi Calm Calm - N/A   Scattered Clouds
8:35 AM 23.9 °F 19.5 °F 21.2 °F 89% 30.36 in 4.0 mi West 3.5 mph - N/A   Clear
8:55 AM 25.9 °F - 23.0 °F 89% 30.36 in 4.0 mi Calm Calm - N/A   Clear
9:15 AM 28.2 °F - 24.8 °F 87% 30.37 in 5.0 mi Calm Calm - N/A   Clear
9:35 AM 29.5 °F 24.5 °F 25.3 °F 85% 30.37 in 7.0 mi NW 4.6 mph - N/A   Clear
9:55 AM 30.9 °F 26.2 °F 25.7 °F 81% 30.38 in 7.0 mi NNW 4.6 mph - N/A   Clear
10:35 AM 32.7 °F 29.6 °F 26.1 °F 76% 30.40 in 10.0 mi NNW 3.5 mph - N/A   Clear
10:55 AM 33.6 °F 29.4 °F 25.5 °F 72% 30.39 in 10.0 mi North 4.6 mph - N/A   Clear
11:15 AM 34.3 °F 30.2 °F 24.3 °F 67% 30.39 in 10.0 mi NNE 4.6 mph - N/A   Clear
11:35 AM 35.1 °F 28.6 °F 23.2 °F 62% 30.37 in 10.0 mi North 8.1 mph - N/A   Scattered Clouds
11:55 AM 35.1 °F 28.6 °F 22.6 °F 61% 30.36 in 10.0 mi North 8.1 mph - N/A   Scattered Clouds
12:15 PM 35.4 °F 31.5 °F 22.5 °F 59% 30.36 in 10.0 mi North 4.6 mph - N/A   Scattered Clouds
12:35 PM 35.6 °F - 22.1 °F 58% 30.36 in 10.0 mi Calm Calm - N/A   Scattered Clouds
12:55 PM 36.7 °F 31.2 °F 22.5 °F 56% 30.35 in 10.0 mi NNW 6.9 mph - N/A   Scattered Clouds
1:15 PM 36.7 °F - 21.6 °F 54% 30.34 in 10.0 mi Calm Calm - N/A   Scattered Clouds
1:35 PM 37.4 °F 32.1 °F 22.8 °F 56% 30.34 in 10.0 mi NNW 6.9 mph - N/A   Scattered Clouds
1:55 PM 36.9 °F 31.4 °F 21.0 °F 53% 30.33 in 10.0 mi NNW 6.9 mph - N/A   Clear
2:15 PM 36.5 °F - 20.8 °F 53% 30.32 in 10.0 mi Calm Calm - N/A   Scattered Clouds
2:35 PM 36.5 °F - 19.4 °F 50% 30.31 in 10.0 mi Calm Calm - N/A   Scattered Clouds
2:55 PM 37.6 °F - 19.9 °F 49% 30.30 in 10.0 mi Calm Calm - N/A   Clear
3:15 PM 36.9 °F - 20.7 °F 52% 30.29 in 10.0 mi Calm Calm - N/A   Clear
3:35 PM 37.9 °F 34.4 °F 21.9 °F 53% 30.29 in 10.0 mi WNW 4.6 mph - N/A   Clear
3:55 PM 36.5 °F 33.9 °F 21.4 °F 54% 30.30 in 10.0 mi West 3.5 mph - N/A   Scattered Clouds
4:15 PM 36.5 °F 32.7 °F 21.6 °F 55% 30.29 in 10.0 mi NNW 4.6 mph - N/A   Clear
4:55 PM 35.6 °F 31.7 °F 21.9 °F 58% 30.30 in 10.0 mi NW 4.6 mph - N/A   Clear
5:15 PM 34.9 °F 30.8 °F 22.6 °F 61% 30.30 in 10.0 mi NW 4.6 mph - N/A   Clear
5:35 PM 33.4 °F 30.4 °F 22.8 °F 65% 30.30 in 10.0 mi WNW 3.5 mph - N/A   Clear
5:55 PM 32.2 °F - 22.5 °F 67% 30.30 in 10.0 mi Calm Calm - N/A   Clear
6:15 PM 32.5 °F - 22.5 °F 66% 30.30 in 10.0 mi Calm Calm - N/A   Clear
6:35 PM 29.8 °F - 22.3 °F 73% 30.31 in 10.0 mi Calm Calm - N/A   Clear
6:55 PM 29.5 °F - 23.0 °F 77% 30.31 in 10.0 mi Calm Calm - N/A   Clear
7:15 PM 28.2 °F - 22.1 °F 78% 30.31 in 10.0 mi Calm Calm - N/A   Clear
7:55 PM 27.5 °F - 22.1 °F 80% 30.31 in 10.0 mi Calm Calm - N/A   Clear
8:15 PM 27.1 °F - 22.3 °F 82% 30.31 in 10.0 mi Calm Calm - N/A   Clear
8:35 PM 26.1 °F - 21.7 °F 84% 30.30 in 10.0 mi Calm Calm - N/A   Clear
8:55 PM 26.1 °F - 21.9 °F 84% 30.31 in 10.0 mi Calm Calm - N/A   Clear
9:15 PM 26.6 °F - 22.1 °F 83% 30.31 in 10.0 mi Calm Calm - N/A   Clear
9:35 PM 25.7 °F - 21.6 °F 84% 30.31 in 10.0 mi Calm Calm - N/A   Clear
9:55 PM 25.7 °F - 21.7 °F 85% 30.31 in 7.0 mi Calm Calm - N/A   Clear
10:15 PM 25.5 °F - 21.6 °F 85% 30.30 in 10.0 mi Calm Calm - N/A   Clear
10:35 PM 25.2 °F - 21.6 °F 86% 30.30 in 7.0 mi Calm Calm - N/A   Clear
10:55 PM 25.3 °F - 21.7 °F 86% 30.30 in 7.0 mi Calm Calm - N/A   Clear
11:15 PM 26.4 °F - 22.8 °F 86% 30.31 in 10.0 mi Calm Calm - N/A   Clear
11:35 PM 26.1 °F - 22.1 °F 85% 30.31 in 7.0 mi Calm Calm - N/A   Clear
11:55 PM 25.7 °F - 21.6 °F 84% 30.31 in 10.0 mi Calm Calm - N/A   Clear